Location: Birchganj
(11.6167°N, 92.7500°E)
Time: 08:02:18
(UTC+00:00)

Daily predictions for brighter satellites

Satellite Brightness Start Highest point End
(mag) Time Altitude Azimuth Time Altitude Azimuth Time Altitude Azimuth
Meteor 1-5 Rocket 4.3 12:25:16 10° N 12:30:51 62° E 12:36:37 10° SSE
STARLINK-1168 4.2 12:26:57 10° NNW 12:30:52 42° NE 12:34:47 10° SE
Okean-O 2.7 12:26:50 10° S 12:31:15 85° W 12:35:40 10° NNW
Cosmos 1184 Rocket 3.0 12:32:11 10° N 12:35:22 72° W 12:38:34 10° S
STARLINK-1164 4.0 12:31:49 10° NNW 12:35:49 49° NE 12:39:48 10° SE
SL-4 R/B 3.9 12:34:18 10° SSE 12:36:09 12° ESE 12:38:02 10° E
Okean 1-7 4.3 12:33:59 10° SE 12:37:08 20° E 12:40:15 10° NE
Cosmos 2056 Rocket 3.4 12:33:19 10° S 12:38:23 63° ESE 12:43:25 10° NNE
STARLINK-1182 3.8 12:36:45 10° NNW 12:40:48 57° NE 12:44:51 10° SE
YAOGAN 1 2.5 12:40:54 10° SSE 12:45:12 71° ENE 12:49:29 10° N
STARLINK-1163 3.7 12:41:41 10° NNW 12:45:47 67° NE 12:49:42 11° SE
Cosmos 2251 Rocket 4.0 12:42:32 10° N 12:47:24 39° ENE 12:52:16 10° SE
STARLINK-1172 3.6 12:46:38 10° NNW 12:50:45 78° NE 12:54:30 12° SE
SWIFT 2.6 12:47:34 10° W 12:51:49 68° NNW 12:56:04 10° ENE
USA 267 4.1 12:49:10 11° ESE 12:54:39 35° NE 13:00:27 10° NNW
STARLINK-1145 3.6 12:51:37 10° NW 12:55:44 90° SW 12:59:17 14° SE
Kosmos-1675 4.0 12:56:05 13° SSE 12:57:52 27° E 13:02:49 10° NE
Meteor 1-18 Rocket 4.4 12:53:30 10° SSE 12:58:49 49° E 13:04:10 10° NNE
Cosmos 2242 Rocket 3.5 12:54:35 10° S 12:58:59 86° E 13:03:23 10° N
STARLINK-1161 3.7 12:56:35 10° NW 13:00:42 78° SW 13:04:04 15° SSE
GPS 2-18 Rocket1 4.2 12:59:55 10° NW 13:03:38 38° NNE 13:06:32 15° ENE
CZ-2C R/B 3.8 13:01:43 15° SE 13:05:33 36° ENE 13:10:33 10° N
STARLINK-1160 3.9 13:01:32 10° NW 13:05:38 67° SW 13:08:49 16° SSE
CSL-04 Debris 4.1 13:01:23 10° SSE 13:06:46 89° W 13:12:09 10° NNW
Meteor 1-4 Rocket 3.2 13:06:10 21° SE 13:07:41 31° E 13:10:45 10° NNE
CZ-2C R/B 3.3 13:02:43 10° NE 13:07:47 35° E 13:12:47 10° SSE
Cosmos 1420 Rocket 4.0 13:03:34 10° S 13:08:42 60° ESE 13:13:48 10° NNE
Cosmos 1452 Rocket 4.0 13:03:57 10° SSE 13:08:43 35° E 13:13:29 10° NE
Cosmos 1733 Rocket 2.9 13:04:43 10° N 13:09:02 82° E 13:13:20 10° S
STARLINK-1170 4.1 13:06:34 10° NW 13:10:37 56° SW 13:13:38 17° SSE
Okean 1 3.2 13:06:41 10° S 13:10:42 81° E 13:14:44 10° N
CZ-3B Rocket 3.8 13:08:57 10° WNW 13:14:01 60° NNE 22:46:40 10° ESE
Cosmos 389 Rocket 3.7 13:10:56 10° SSW 13:14:12 42° W 13:17:29 10° NNW
STARLINK-1150 4.4 13:11:37 10° NW 13:15:35 48° SW 13:18:26 18° SSE
Milstar 3 Cent rocket 2.7 13:10:24 10° SW 13:15:50 77° SSE 13:26:08 10° ENE
Meteor 1-11 Rocket 4.1 13:11:21 10° NNW 13:16:47 63° W 13:22:13 10° S
ARIANE 5 R/B 4.2 13:14:17 10° SW 13:16:49 21° SSE 13:17:45 20° SE
DELTA 2 R/B (1) 4.2 13:16:19 10° WNW 13:21:38 47° SW 13:25:04 21° SSE
CZ-4 R/B 3.8 13:18:22 10° SSW 13:21:42 23° W 13:25:05 10° NW
USA 186 3.8 13:24:06 11° NNE 13:24:06 11° NNE 13:24:19 10° NNE
ARIANE 5 R/B 3.8 13:16:22 10° WSW 13:23:30 35° SSW 13:25:04 26° SSE
ASTEX 1 3.9 13:22:02 29° ESE 13:23:43 38° E 13:28:13 10° NNE
STARLINK-60 4.3 13:22:19 10° SSW 13:23:52 25° S 13:23:52 25° S
Ariane H10 4.2 13:21:53 10° WSW 13:26:05 53° S 13:34:28 23° ESE
BREEZE-M DEB (TANK) 1.8 13:24:07 10° NW 13:26:24 85° NE 13:27:37 39° SE
DMSP B5D2-2 4.0 13:22:24 10° NNE 13:27:36 64° ESE 13:32:46 10° S
Hubble Space Telescope 3.2 13:29:11 10° NNW 13:31:13 13° NNE 13:33:11 10° NE
Cosmos 1461 3.0 13:27:58 10° SSW 13:31:51 70° WNW 13:35:51 10° NNE
ARIANE 3 DEB 3.6 13:26:42 10° WSW 13:32:31 36° S 13:33:02 34° SSE
Okean 3 4.3 13:34:27 32° ENE 13:34:27 32° ENE 13:37:32 10° NNE
Cosmos 1703 Rocket 4.5 13:30:06 10° SSW 13:34:16 47° W 13:38:25 10° N
Cosmos 2278 Rocket 3.7 13:29:48 10° SW 13:35:01 38° WNW 13:40:15 10° N
SJ-6B 3.8 13:38:05 29° NE 13:38:05 29° NE 13:40:33 10° NNE
Cosmos 2221 Rocket 4.4 13:38:26 34° ENE 13:38:26 34° ENE 13:41:46 10° NNE
ASC 2 Rocket 3.5 13:33:01 10° WSW 13:37:44 75° SSE 13:41:24 26° ENE
MOS 1 Rocket 3.3 13:34:50 10° N 13:39:04 71° WNW 13:43:23 10° SSW
Cosmos 1743 3.0 13:36:23 10° N 13:39:35 48° NE 13:39:35 48° NE
ARIANE 5 DEB (SYLDA) 3.9 13:36:14 10° WSW 13:40:09 46° SSE 13:42:37 33° ESE
Cosmos 2034 Rocket 3.8 13:36:06 10° N 13:42:13 73° E 13:45:30 29° SSE
STARLINK-1178 4.4 13:43:58 10° NNW 13:47:27 39° NE 13:47:27 39° NE
STARLINK-1157 3.7 13:44:48 10° NW 13:47:23 50° WNW 13:47:23 50° WNW
Cosmos 44 Rocket 3.3 13:43:08 10° NNW 13:48:08 87° WSW 13:49:25 51° SSE
GPS 2-14 Rocket1 3.4 13:48:03 10° WSW 13:51:07 43° SW 13:51:07 43° SW
STARLINK-1120 4.3 13:48:50 10° NNW 13:52:12 43° NNE 13:52:12 43° NNE
ATLAS 5 CENTAUR R/B 4.0 13:50:59 10° SSW 13:52:06 12° S 13:52:06 12° S
Ariane Rocket 3.0 13:52:13 43° S 13:53:56 81° WSW 13:59:00 10° NNW
Resurs 01 Rocket 4.1 13:57:59 11° NE 13:57:59 11° NE 13:58:08 10° NE
STARLINK-1131 4.3 13:53:44 10° NNW 13:56:59 46° NNE 13:56:59 46° NNE
Cosmos 371 Rocket 4.2 13:55:44 10° SSW 14:00:21 47° WNW 14:05:00 10° N
NOSS 2-2 (D) 3.8 13:57:35 10° SW 14:01:45 57° WNW 14:05:18 10° NNE
H-2A R/B 2.7 13:59:43 28° SSW 14:02:02 48° W 14:06:53 10° NNW
STARLINK-1190 4.4 13:58:41 10° NNW 14:01:48 46° N 14:01:48 46° N
Cosmos 1908 Rocket 4.1 13:59:54 10° NNW 14:04:16 57° W 14:04:53 52° SW
MOS 1 4.2 14:04:16 57° S 14:05:31 87° WSW 14:11:14 10° NNW
MetOp-A 4.3 14:09:21 56° NE 14:09:21 56° NE 14:13:56 10° N
ATLAS 2AS CENTAUR RB 4.2 14:06:31 10° WSW 14:08:59 12° SW 14:09:38 12° SSW
SL-08 RB Rocket 3.9 14:11:56 68° WNW 14:11:56 68° WNW 14:16:13 10° NNW
Centaur Rocket 3.7 14:05:12 10° WSW 14:10:52 51° WSW 14:10:52 51° WSW
SL-4 R/B 3.3 14:11:16 10° SW 14:15:27 44° NW 14:19:55 10° NNE
Cosmos 1634 Rocket 4.3 14:11:42 10° N 14:16:56 53° NE 14:16:56 53° NE
Aureole 1 Rocket 4.0 14:11:59 10° N 14:17:57 70° ENE 14:18:04 70° E
Centaur D-1A AC-32 3.8 14:15:24 10° WNW 14:27:40 39° N 14:28:33 37° NNE
Ariane H10+ 4.5 13:42:03 10° W 14:28:49 76° S 14:34:16 50° ESE
USA 267 4.1 14:36:32 36° SW 14:37:24 38° SW 14:43:22 10° WNW
COSMOS 2406 4.2 14:39:57 10° NNW 14:43:41 43° NNW 14:43:41 43° NNW
Ariane 3 Deb 4.4 14:31:33 10° W 14:45:39 48° SW 14:45:39 48° SW
H-2A ROCKET BODY 3.7 14:45:54 10° W 14:49:57 41° N 15:05:04 10° ENE
Cosmos 1833 Rocket 4.4 14:52:41 10° N 14:55:00 25° N 14:55:00 25° N
Cosmos 2082 Rocket 4.4 14:59:12 10° N 15:00:27 16° N 15:00:27 16° N
ARIANE 5 R/B 4.1 14:31:52 10° W 15:03:30 45° SSW 15:03:30 45° SSW
SL-16 R/B 4.4 20:26:24 17° N 20:26:24 17° N 20:27:39 10° N
Cosmos 2333 Rocket 3.8 20:47:05 26° ESE 20:47:28 27° ESE 20:52:06 10° NE
Cosmos 2360 Rocket 3.3 20:53:59 37° N 20:53:59 37° N 20:57:19 10° N
MSX 4.3 20:49:23 10° NNE 20:54:31 56° E 20:54:31 56° E
Cosmos 2322 4.2 20:58:20 55° E 20:58:20 55° E 21:03:23 10° NNE
H-2A R/B 3.7 21:01:37 32° ENE 21:01:37 32° ENE 21:05:01 10° NNE
IDEFIX/ARIANE 42P 3.6 20:57:42 10° N 21:00:53 38° N 21:00:53 38° N
ATLAS CENTAUR R/B 4.1 20:58:53 10° NNW 21:05:33 89° WSW 21:25:14 10° SSE
Cosmos 2333 4.4 21:07:08 65° E 21:07:08 65° E 21:12:21 10° NNE
Cosmos 864 Rocket 4.3 21:11:56 84° SSE 21:12:09 87° E 21:18:15 10° N
Cosmos 2219 Rocket 2.9 21:11:59 41° SE 21:13:00 46° ESE 21:18:18 10° NNE
GPS 2-17 Rocket1 4.1 21:17:06 41° ENE 21:17:06 41° ENE 21:19:59 10° ENE
deb Chang Zheng 4 4.4 21:14:40 10° NNE 21:17:45 46° NNE 21:17:45 46° NNE
Lacrosse 5 rocket 2.8 21:20:37 33° ESE 21:20:37 33° ESE 21:23:56 10° NE
Cosmos 1959 Rocket 4.4 21:27:24 60° W 21:27:25 60° W 21:33:28 10° N
Cosmos 2218 Rocket 4.0 21:28:53 57° W 21:28:56 57° W 21:35:09 10° N
Cosmos 2344 3.6 21:27:42 36° SSW 21:31:35 82° ESE 21:39:04 10° NNE
CBERS 1 LM4 rocket 4.3 21:31:07 10° N 21:36:17 76° WNW 21:36:49 68° SW
STARLINK-1044 4.2 21:37:40 47° SE 21:37:51 48° SE 21:41:49 10° NE
ATLAS 5 CENTAUR R/B 2.8 21:37:28 27° SE 21:38:27 31° ESE 21:42:01 10° NE
USA 234 3.8 21:32:52 10° NNE 21:38:51 40° NW 21:40:21 35° W
Cosmos 2263 Rocket 2.0 21:34:29 10° NNW 21:40:02 85° WSW 21:45:35 10° SSE
Timation 1 Rocket 4.3 21:34:50 10° NNW 21:40:34 53° WSW 21:40:49 52° WSW
Aurora 2 Rocket 4.3 21:43:32 13° SE 21:43:32 13° SE 21:44:18 10° ESE
STARLINK-1047 3.9 21:42:28 53° SSE 21:42:49 56° SE 21:46:52 10° NE
deb Centaur AC-2 4.1 21:46:29 59° W 21:47:22 78° NNW 21:51:52 10° ENE
Cosmos 923 Rocket 4.1 21:45:23 31° S 21:47:53 71° ESE 21:53:03 10° NNE
Cosmos 1818 3.6 21:46:54 37° S 21:49:05 77° ESE 21:54:29 10° NNE
STARLINK-1202 4.4 21:45:30 10° NNW 21:49:32 52° NE 21:53:33 10° SE
SL-08 R/B 4.5 21:49:01 36° SSW 21:51:33 61° W 21:57:45 10° N
STARLINK-1059 3.6 21:52:02 58° SSW 21:52:45 77° SE 21:56:52 10° NE
NOSS 3-3 (A) 4.2 21:53:17 21° S 21:56:56 57° ESE 22:02:32 10° NE
NOSS 3-3 (C) 4.2 21:53:20 20° S 21:57:01 56° ESE 22:02:38 10° NE
STARLINK-1057 3.5 21:56:49 54° SSW 21:57:43 89° SE 22:01:50 10° NE
Molniya-1 3.5 21:57:31 43° SSW 21:58:36 84° ESE 22:04:05 10° NNE
Cosmos 1606 3.5 21:55:02 10° N 21:58:41 49° E 22:02:22 10° SSE
STARLINK-1246 3.8 21:55:23 10° NNW 21:59:29 72° NE 22:03:36 10° SE
COSMOS 2428 2.7 21:57:12 35° SW 21:59:29 62° WNW 22:05:05 10° N
Cosmos 2237 Rocket 3.5 21:56:29 10° S 22:01:40 38° ESE 22:06:52 10° NE
Ariane H10-3 4.1 22:01:23 11° SSE 22:02:28 12° SSE 22:04:51 10° SE
STARLINK-1034 3.5 22:01:37 48° SW 22:02:42 79° NW 22:06:49 10° NNE
ALOS 3.7 21:59:49 10° NE 22:04:04 35° E 22:08:19 10° SSE
STARLINK-1224 3.6 22:00:19 10° NNW 22:04:27 83° NE 22:08:34 10° SE
Cosmos 1933 4.2 22:02:14 10° N 22:06:07 49° E 22:10:00 10° SSE
STARLINK-1068 3.6 22:06:22 41° WSW 22:07:38 68° NW 22:11:44 10° NNE
Cosmos 2239 Rocket 4.5 22:02:30 10° S 22:08:48 88° E 22:15:08 10° N
STARLINK-1225 3.5 22:05:18 10° NW 22:09:25 85° WSW 22:13:33 10° SSE
Cosmos 1328 Rocket 3.7 22:07:09 10° N 22:11:29 73° E 22:15:48 10° S
Cosmos 2084 Rocket 3.8 22:07:28 10° NW 22:11:43 42° WSW 22:15:58 10° S
STARLINK-1027 3.7 22:11:10 35° WSW 22:12:38 58° NW 22:16:41 10° NNE
Cosmos 158 Rocket 4.0 22:08:59 13° S 22:13:38 81° ESE 22:18:42 10° NNE
STARLINK-1230 3.4 22:10:16 10° NW 22:14:23 73° SW 22:18:30 10° SSE
Cosmos 1500 Rocket 3.5 22:12:49 16° SSW 22:16:15 72° W 22:20:39 10° N
STARLINK-1060 3.9 22:15:56 30° WSW 22:17:35 50° NW 22:21:35 10° NNE
GPS 2-14 Rocket1 2.5 22:16:04 29° W 22:17:49 65° SSW 22:21:33 10° ESE
STARLINK-1243 3.5 22:15:17 10° NW 22:19:22 62° SW 22:23:26 10° SSE
Cosmos 1689 Rocket 4.2 22:18:29 10° SE 22:21:04 28° ENE 22:23:36 10° NNE
STARLINK-1030 4.1 22:20:45 26° WSW 22:22:35 43° NW 22:26:30 10° NNE
Ariane H10-3 3.8 22:23:32 19° SSW 22:24:12 20° S 22:27:06 10° ESE
STARLINK-1236 3.7 22:20:17 10° NW 22:24:18 53° SW 22:28:20 10° SSE
Spot 2 3.9 22:21:13 10° NNE 22:25:16 86° ESE 22:29:29 10° SSW
ARIANE 5 R/B 3.9 22:23:49 15° SSW 22:25:23 20° SSE 22:30:54 10° ESE
Cosmos 1805 Rocket 4.2 22:23:05 10° S 22:27:26 59° E 22:31:47 10° NNE
STARLINK-1020 4.4 22:25:32 22° WSW 22:27:33 37° NW 22:31:23 10° NNE
CZ-2C R/B 3.6 22:23:51 10° NNW 22:28:08 27° WNW 22:30:47 18° WSW
Cosmos 2333 Rocket 3.5 22:29:08 17° WSW 22:31:28 22° WNW 22:35:45 10° NNW
FENGYUN 3A 3.7 22:27:00 10° NNE 22:32:25 86° ESE 22:37:51 10° S
Cosmos 1862 3.7 22:30:12 10° S 22:34:11 65° E 22:38:08 10° NNE
STARLINK-1269 4.0 22:30:23 10° NW 22:34:15 39° WSW 22:38:06 10° SSE
Cosmos 1844 Rocket 3.7 22:31:39 10° N 22:37:00 50° ENE 22:42:21 10° SSE
STARLINK-1200 4.2 22:35:27 10° WNW 22:39:11 34° WSW 22:42:56 10° S
Cosmos 1535 Rocket 4.5 22:35:56 10° S 22:42:07 71° W 22:48:23 10° N
STARLINK-1192 4.4 22:40:34 10° WNW 22:44:10 29° WSW 22:47:46 10° S
Cosmos 2112 Rocket 4.5 22:40:59 10° SW 22:45:51 41° WNW 22:50:46 10° N
Cosmos 1782 3.3 22:42:52 10° N 22:46:48 63° E 22:50:44 10° SSE
ERBS 3.7 22:47:17 10° WNW 22:49:44 19° WSW 22:52:10 10° SSW
SL-24 R/B - RUBIN 2 4.3 22:45:59 10° SW 22:50:53 51° WNW 22:56:30 10° N
CZ-4B R/B 2.6 22:49:17 10° SSW 22:51:32 19° W 22:53:46 10° NW
Iridium 4 Rocket 4.0 22:48:13 10° SSW 22:52:06 30° W 22:56:14 10° NNW
Cosmos 1934 Rocket 4.1 22:47:09 10° SSW 22:53:05 52° W 22:58:58 10° N
CZ-3A R/B 4.3 22:51:10 10° S 22:54:11 21° SE 23:01:22 10° E
CZ-4B R/B 3.2 22:51:11 10° N 22:54:29 35° WNW 22:57:47 10° SW
SJ-12 4.0 22:51:28 10° N 22:55:32 62° WNW 22:59:37 10° SSW
Cosmos 2219 Rocket 4.0 22:54:37 10° W 22:56:51 12° WNW 22:59:06 10° NW
GPS 2-17 Rocket1 4.1 22:55:04 10° WNW 22:59:06 36° N 23:03:12 10° ENE
STARLINK-1039 4.4 22:55:06 10° SSW 22:59:06 51° SE 23:03:07 10° NE
Lacrosse 5 rocket 3.5 22:57:32 10° W 22:59:11 12° NW 23:00:48 10° NNW
Meteor 1-31 Rocket 4.2 22:57:05 10° NNW 22:59:52 20° WNW 23:02:41 10° SW
Cosmos 1515 Rocket 3.9 22:55:55 10° NNW 23:00:00 42° W 23:04:06 10° SSW
CZ-3A R/B 4.3 22:55:20 10° W 23:01:54 59° N 23:34:05 10° ENE
ATLAS 2A CENTAUR R/B 4.0 22:59:00 10° S 23:02:35 21° SE 23:10:49 10° E
STARLINK-1045 4.1 23:00:02 10° SSW 23:04:05 60° SE 23:08:09 10° NE
Sich 1 3.1 23:01:21 10° SSW 23:05:38 57° W 23:09:53 10° N
CZ-3 R/B 4.0 22:52:37 10° W 23:14:27 35° NNW 23:21:15 10° NE
